Location: Brunsbüttel
(52.3892°N, 10.6138°E)
Time: 20:16:29
(UTC+00:00)

Cosmos 1833 Rocket - Pass Details

Date: 19 May 2025
Orbit: 831 x 838 km, 71.0° (Epoch: 20 June)

Event Time Altitude Azimuth Distance (km) Brightness Sun altitude
Rises 22:07:37 0° 244° (WSW) 3,386 5.7 -16.2°
Reaches altitude 10° 22:10:19 10° 254° (WSW) 2,455 5.1 -16.3°
Maximum altitude 22:15:21 32° 317° (NW) 1,406 4.5 -16.5°
Drops below altitude 10° 22:20:23 10° 21° (NNE) 2,465 6.0 -16.7°
Sets 22:23:07 0° 31° (NNE) 3,402 6.6 -16.8°
